User: anonymous   Login
Location: Campo Claro
(10.4907°N, 66.8285°W)
Time: 17:49:57
(UTC+00:00)
Language:

COSMOS 2487 - Orbit

View from above orbital plane
View from above orbital plane
View from above satellite
View from above satellite

Ground track
Ground track

The orbit data is extracted from the following two-line orbital elements,

1 39194U 13032A   22144.77051780  .00053472  00000-0  69578-3 0  9992
2 39194  74.7017   7.6099 0006147 170.5757 189.5581 15.58496873499145
Epoch (UTC): 24 May 2022 18:29:32
Eccentricity: 0.0006147
inclination: 74.7017°
perigee height: 388 km
apogee height: 396 km
right ascension of ascending node: 7.6099°
argument of perigee: 170.5757°
revolutions per day: 15.58496873
mean anomaly at epoch: 189.5581°
orbit number at epoch: 49914

The dashed part of the orbit path shows where the satellite is in the earth's shadow,  

DLR